Location: *
(32.8667°N, 13.1833°E)
Time: 07:58:28
(UTC+00:00)

Cosmos 1140 Rocket - Pass Details

Date: 18 July 2019
Orbit: 744 x 768 km, 74.1° (Epoch: 18 August)

Event Time Altitude Azimuth Distance (km) Brightness Sun altitude
Exits shadow 21:27:45 42° 280° (W) 1,071 4.4 -30.5°
Maximum altitude 21:28:05 42° 291° (WNW) 1,063 4.4 -30.6°
Drops below altitude 10° 21:32:59 10° 2° (N) 2,286 6.6 -31.1°
Sets 21:35:29 0° 9° (N) 3,219 7.5 -31.3°
